Flag for Austria Weather past 2 weeks in Waidhofen an der Ybbs, Lower Austria, Austria

Now
58 °F

Cool.


Feels Like: 58 °F
Forecast: 49 / 80 °F
Wind: 1 mph from South

Location: Amstetten

Current Time: Jul 31, 2015 at 7:43:05 AM

Latest Report: Jul 31, 2015 at 7:00 AM


Visibility: N/A

Pressure: 30.06 "Hg

Humidity: 88%

Dew point: 54 °F

Location of Waidhofen an der YbbsLocation

Historic Weather in Waidhofen an der Ybbs — Graph

°F

Waidhofen an der Ybbs temperature yesterday

Maximum temperature yesterday: 73 °F (at 5:00 PM)
Minimum temperature yesterday: 56 °F (at 6:00 AM)
Average temperature yesterday: 65 °F

Past Weeks' High & Low Weather Summary

 TemperatureHumidityPressure
High97 °F (Jul 22, 4:00 PM)98% (Jul 16, 4:00 AM)30.12 "Hg (Jul 16, 4:00 AM)
Low55 °F (Jul 29, 7:00 AM)22% (Jul 17, 4:00 PM)29.67 "Hg (Jul 25, 4:00 AM)
Average73 °F64%29.90 "Hg
* Reported Jul 16 4:00 AM — Jul 31 4:00 AM, Waidhofen an der Ybbs, Weather by CustomWeather, © 2015

Note: Actual official high and low records may vary slightly from our data, if they occured in-between our weather recording intervals... More about our weather records

Advertising

Waidhofen an der Ybbs weather history for previous 24 hours

 ConditionsComfort  
Time TempWeatherWind HumidityBarometerVisibility
4:00 AM
Fri, Jul 31
61 °FCool.2 mph79%30.03 "HgN/A
3:00 AM60 °FCool.1 mph83%30.03 "HgN/A
2:00 AM61 °FCool.1 mph78%30.03 "HgN/A
1:00 AM61 °FCool.1 mph76%30.02 "HgN/A
12:00 AM61 °FCool.No wind77%30.01 "HgN/A
11:00 PM
Thu, Jul 30
63 °FMild.1 mph68%30.01 "HgN/A
10:00 PM65 °FMild.1 mph65%30.00 "HgN/A
9:00 PM65 °FMild.2 mph62%29.98 "HgN/A
8:00 PM68 °FMild.3 mph55%29.96 "HgN/A
7:00 PM69 °FMild.5 mph54%29.95 "HgN/A
6:00 PM71 °FMild.3 mph45%29.94 "HgN/A
5:00 PM73 °FMild.2 mph41%29.94 "HgN/A
4:00 PM72 °FMild.3 mph40%29.95 "HgN/A
3:00 PM71 °FMild.5 mph40%29.96 "HgN/A
2:00 PM71 °FMild.3 mph41%29.96 "HgN/A
1:00 PM70 °FMild.3 mph44%29.97 "HgN/A
12:00 PM67 °FMild.2 mph50%29.98 "HgN/A
11:00 AM66 °FMild.2 mph55%29.99 "HgN/A
10:00 AM63 °FMild.2 mph69%29.99 "HgN/A
9:00 AM62 °FCool.2 mph74%29.99 "HgN/A
8:00 AM61 °FOvercast.2 mph77%29.99 "HgN/A
7:00 AM58 °FCool.1 mph87%30.00 "HgN/A
Weather by CustomWeather, © 2015

See weather overviewHow to use our weather pages